Location: McFarlands Corners
(41.4117°N, 81.3382°W)
Time: 05:54:47
(UTC+00:00)

A-11 Canister half - Pass Details

Date: 18 February 2026
Orbit: 1524 x 1683 km, 47.3° (Epoch: 14 March)

Event Time Altitude Azimuth Distance (km) Brightness Sun altitude
Rises 03:30:26 0° 296° (WNW) 4,677 12.2 -49.0°
Reaches altitude 10° 03:33:27 10° 295° (WNW) 3,694 11.5 -49.5°
Enters shadow 03:37:51 33° 291° (WNW) 2,366 10.1 -50.1°
